[[{"header":{"parameterUnit":"m.s-1","parameterCategory":2,"la1":30.2991,"la2":30.254,"lo1":-89.0895,"lo2":-89.0444,"dy":0.0017,"dx":0.0017,"nx":28,"ny":28,"refTime":"2026-03-04T03:00:00:Z","depth":"0","parameterNumber":2,"parameterNumberName":"U-component_of_CURRENTS"},"data":[0,0,0,0,0,0,0,0,0,0,0,0,0,0,0,0,0,0,0,0,0,0,0,0,0,0,0,0,0,0,0,0,0,0,0,0,0,0,0,0,0,0,0,0,0,0,0,0,0,0,0,0,0,0,0,0,0,0,0.2156,0.2156,0,0.2148,0.2148,0.2148,0.2123,0.2122,0.2122,0.2122,0.2081,0.208,0.2079,0,0,0,0,0,0,0,0,0,0,0,0,0,0.2164,0.2164,0.2156,0.2156,0.2156,0.2148,0.2148,0.2148,0.2123,0.2122,0.2122,0.2122,0.2081,0.208,0.2079,0,0,0,0,0,0,0,0,0,0,0,0,0,0.2157,0.2164,0.2156,0.2145,0.2144,0.2148,0.2148,0.2148,0.2123,0.2122,0.2122,0.2121,0.2081,0.208,0.2079,0.2083,0,0,0.2076,0.2075,0,0,0,0,0,0,0,0,0.2157,0.2156,0.2146,0.2145,0.2144,0.2138,0.2136,0.2125,0.2123,0.2128,0.2122,0.2121,0.2099,0.2096,0.2093,0.2081,0.2079,0.2076,0.2075,0.2074,0.2074,0,0,0,0,0,0,0,0.2158,0.2157,0.2151,0.2146,0.2145,0.2145,0.2143,0.2134,0.2114,0.2128,0.2127,0.213,0.2098,0.2094,0.2092,0.2078,0.2076,0.2075,0.2074,0.2074,0.2104,0.2106,0,0,0,0,0,0,0.2163,0.2157,0.2151,0.2151,0.2152,0.2145,0.2143,0.2139,0.2115,0.2112,0.213,0.2128,0.2097,0.2093,0.209,0.2113,0.2074,0.2073,0.2073,0.2103,0.2104,0.2106,0,0,0,0,0,0,0.2163,0.2162,0.2151,0.2156,0.2155,0.2146,0.2141,0.2139,0.2139,0.2117,0.2113,0.2134,0.2096,0.2092,0.2094,0.211,0.2073,0.2072,0.2101,0.2103,0.2105,0.2145,0,0,0,0,0,0,0.2163,0.2162,0.2162,0.2156,0.2155,0.2162,0.2142,0.2139,0.2143,0.2141,0.2119,0.2115,0.2095,0.2096,0.2093,0.2108,0.2071,0.2099,0.2102,0.2105,0.2142,0.2149,0.2154,0,0,0,0,0,0.2163,0.2167,0.2162,0.2162,0.2154,0.2163,0.2163,0.2153,0.2144,0.215,0.2138,0.2115,0.2112,0.2096,0.2092,0.2107,0.2098,0.2101,0.2104,0.2139,0.2147,0.2154,0,0,0,0,0,0,0.217,0.2165,0.2159,0.216,0.2166,0.216,0.2166,0.216,0.2156,0.2154,0.2128,0.2123,0.2136,0.212,0.2104,0.2128,0.2104,0.2106,0.2132,0.2139,0.2145,0.2141,0.207,0,0,0,0,0,0.2172,0.2172,0.2172,0.2174,0.2179,0.2174,0.2177,0.2173,0.2169,0.2167,0.2152,0.2144,0.2148,0.2141,0.2141,0.2146,0.2144,0.2158,0.2164,0.2169,0.2165,0.2183,0.219,0.2117,0.2117,0.2117,0,0,0.2175,0.2174,0.2173,0.2176,0.2178,0.2187,0.2174,0.2185,0.2191,0.2163,0.2167,0.2166,0.2157,0.2169,0.2172,0.2154,0.2194,0.2173,0.2177,0.2171,0.2187,0.2194,0.22,0.2119,0.2119,0.2119,0,0,0.2184,0.2182,0.2186,0.2193,0.2203,0.2203,0.221,0.2211,0.2212,0.2218,0.2209,0.2218,0.2209,0.2211,0.2209,0.2249,0.2231,0.2253,0.2269,0.2287,0.2292,0.2297,0.232,0.2326,0.2249,0.2249,0.2249,0,0.2188,0.2188,0.2191,0.2201,0.2207,0.2212,0.2222,0.2229,0.223,0.2233,0.2225,0.2236,0.223,0.2247,0.2263,0.2261,0.2269,0.2238,0.2293,0.2298,0.2302,0.2324,0.2331,0.2251,0.2251,0.2251,0.225,0,0.2197,0.2202,0.2211,0.2219,0.2229,0.2242,0.2253,0.2262,0.2263,0.2266,0.2287,0.2287,0.2288,0.2299,0.2288,0.2321,0.2317,0.2304,0.227,0.2311,0.2333,0.2339,0.2254,0.2254,0.2253,0.2252,0,0,0.2189,0.2211,0.2212,0.2212,0.2239,0.224,0.2266,0.2281,0.2292,0.2303,0.2318,0.2335,0.2336,0.2336,0.2336,0.235,0.2395,0.2338,0.2338,0.2353,0.244,0.2442,0.2449,0.2388,0.2389,0.2389,0.2448,0,0.2193,0.2203,0.222,0.2229,0.2233,0.2253,0.2271,0.2288,0.2308,0.2328,0.2343,0.2362,0.2351,0.2359,0.2373,0.2393,0.241,0.238,0.2404,0.2405,0.2394,0.2456,0.2375,0.2421,0.2454,0.2455,0.2455,0,0.2189,0.2195,0.2202,0.2217,0.2222,0.2232,0.2254,0.2274,0.2316,0.234,0.2368,0.2382,0.2416,0.2399,0.2444,0.2425,0.2434,0.2445,0.2447,0.2435,0.2418,0.2383,0.2431,0.2356,0.2464,0.2464,0.2463,0,0.2152,0.2177,0.2175,0.2181,0.2206,0.2212,0.2227,0.2268,0.2294,0.2351,0.2378,0.2418,0.2444,0.2462,0.2491,0.2468,0.2543,0.2512,0.2523,0.2523,0.2452,0.2444,0.2419,0.254,0.254,0.2539,0.2539,0,0.2135,0.2132,0.2153,0.2147,0.2149,0.2177,0.2194,0.2228,0.2289,0.2319,0.2373,0.2413,0.246,0.2505,0.2514,0.2552,0.2563,0.2541,0.2543,0.2467,0.2461,0.2388,0.2354,0.2542,0.2541,0.2541,0.254,0,0.2086,0.2105,0.2099,0.212,0.2128,0.2122,0.2171,0.2186,0.2256,0.2303,0.2324,0.2424,0.2492,0.254,0.2595,0.2588,0.2547,0.2625,0.2542,0.2533,0.2456,0.2429,0.2325,0.2251,0.264,0.2641,0.2641,0,0.206,0.2051,0.2065,0.2059,0.2066,0.2075,0.2083,0.2159,0.2188,0.2301,0.2318,0.2422,0.2486,0.2594,0.262,0.2662,0.2561,0.2596,0.2533,0.2456,0.2427,0.2316,0.2252,0.2461,0.2459,0.2459,0.2458,0,0.2006,0.2011,0.2005,0.1996,0.1996,0.2001,0.2025,0.2053,0.2138,0.2197,0.2284,0.2355,0.2488,0.2521,0.2601,0.261,0.2465,0.2578,0.251,0.2302,0.2165,0.2093,0.2426,0.245,0.2451,0.2451,0.2452,0.2452,0.1962,0.1942,0.1933,0.1916,0.1917,0.1909,0.1893,0.1946,0.1992,0.2058,0.219,0.2263,0.239,0.2507,0.2499,0.2448,0.242,0.2366,0.2348,0.2248,0.2142,0.247,0.2489,0.249,0.2491,0.2492,0.2493,0,0.1891,0.1872,0.1854,0.1822,0.1789,0.1822,0.1832,0.181,0.183,0.1946,0.2024,0.2147,0.2212,0.2286,0.2313,0.2224,0.2103,0.2156,0.1965,0.192,0.2228,0.2185,0.2124,0.2124,0.2124,0.2124,0.2125,0.2125,0.1853,0.1801,0.1784,0.1698,0.1678,0.1609,0.1598,0.1599,0.1653,0.1719,0.1788,0.1896,0.2078,0.2165,0.2101,0.2041,0.1845,0.1773,0.1749,0.1963,0.1979,0.1995,0.1946,0.1836,0.1836,0.1349,0.1345,0.1342]},{"header":{"parameterUnit":"m.s-1","parameterCategory":2,"la1":30.2991,"la2":30.254,"lo1":-89.0895,"lo2":-89.0444,"dy":0.0017,"dx":0.0017,"nx":28,"ny":28,"refTime":"2026-03-04T03:00:00:Z","depth":"0","parameterNumber":3,"parameterNumberName":"V-component_of_CURRENTS"},"data":[0,0,0,0,0,0,0,0,0,0,0,0,0,0,0,0,0,0,0,0,0,0,0,0,0,0,0,0,0,0,0,0,0,0,0,0,0,0,0,0,0,0,0,0,0,0,0,0,0,0,0,0,0,0,0,0,0,0,0.0067,0.0066,0,0.0013,0.0013,0.0012,-0.0019,-0.0019,-0.0019,-0.0019,-0.0087,-0.0088,-0.009,0,0,0,0,0,0,0,0,0,0,0,0,0,0.0093,0.0093,0.0067,0.0066,0.0066,0.0013,0.0013,0.0012,-0.0019,-0.0019,-0.0019,-0.0019,-0.0086,-0.0088,-0.009,0,0,0,0,0,0,0,0,0,0,0,0,0,0.0064,0.0093,0.0067,0.0045,0.0042,0.0014,0.0013,0.0011,-0.0019,-0.0019,-0.0019,-0.0019,-0.0085,-0.0088,-0.0091,-0.0107,0,0,-0.0099,-0.01,0,0,0,0,0,0,0,0,0.0066,0.0063,0.0049,0.0046,0.0044,0.0005,-0.0003,-0.0028,-0.0019,0.0003,-0.0019,-0.0019,-0.0056,-0.0062,-0.0073,-0.011,-0.0113,-0.0099,-0.0101,-0.0102,-0.0102,0,0,0,0,0,0,0,0.0068,0.0065,0.0044,0.0048,0.0045,0.0021,0.0017,-0.0008,-0.0027,0.0001,-0.0001,-0.0005,-0.0058,-0.0071,-0.0075,-0.0114,-0.0099,-0.0101,-0.0103,-0.0104,-0.0172,-0.0172,0,0,0,0,0,0,0.0079,0.0067,0.0046,0.0043,0.0056,0.0021,0.0016,0.0016,-0.0027,-0.0033,-0.0005,-0.0006,-0.0066,-0.0072,-0.0077,-0.0084,-0.0102,-0.0104,-0.0106,-0.0171,-0.0172,-0.0172,0,0,0,0,0,0,0.008,0.0078,0.0048,0.0054,0.0049,0.0021,0.0021,0.0015,0.0006,-0.0031,-0.0038,-0.0008,-0.0066,-0.0074,-0.0095,-0.0087,-0.0105,-0.0108,-0.0171,-0.0171,-0.0172,-0.0107,0,0,0,0,0,0,0.0081,0.0079,0.0082,0.0055,0.0049,0.0038,0.0021,0.0014,0.0004,0.0002,-0.0036,-0.0042,-0.0067,-0.009,-0.0097,-0.0091,-0.011,-0.0171,-0.0171,-0.0172,-0.0109,-0.0105,-0.0102,0,0,0,0,0,0.0082,0.0091,0.0082,0.0079,0.0054,0.0039,0.0033,0.0012,0.0004,0.0003,-0.0022,-0.0041,-0.0098,-0.0092,-0.0101,-0.0095,-0.0171,-0.0171,-0.0172,-0.0111,-0.0106,-0.0102,0,0,0,0,0,0,0.0103,0.0088,0.0078,0.0081,0.0063,0.0034,0.0032,0.0017,-0.0005,-0.0005,-0.0041,-0.0049,-0.0067,-0.0093,-0.0086,-0.0118,-0.0139,-0.0141,-0.009,-0.0085,-0.0082,-0.0056,-0.0112,0,0,0,0,0,0.011,0.0112,0.009,0.0092,0.0087,0.006,0.0051,0.0038,0.0016,0.0007,-0.002,-0.005,-0.0077,-0.0088,-0.0117,-0.0131,-0.0151,-0.0136,-0.0132,-0.0129,-0.0115,-0.0138,-0.0135,-0.0173,-0.0173,-0.0173,0,0,0.0119,0.011,0.0112,0.0097,0.0082,0.0084,0.0054,0.0048,0.0049,0.0003,-0.0004,-0.0039,-0.0079,-0.0095,-0.0105,-0.0113,-0.013,-0.013,-0.0126,-0.0114,-0.0138,-0.0134,-0.0131,-0.0174,-0.0173,-0.0173,0,0,0.0145,0.0131,0.0144,0.0134,0.0119,0.0103,0.0105,0.008,0.0069,0.0053,0.0021,-0.0003,-0.0047,-0.0068,-0.0086,-0.0081,-0.0112,-0.0098,-0.0054,-0.0077,-0.0074,-0.0071,-0.0093,-0.0092,-0.0093,-0.0093,-0.0093,0,0.0157,0.017,0.0145,0.0155,0.0154,0.0118,0.0134,0.0116,0.0087,0.0083,0.006,0.0004,-0.0031,-0.0043,-0.0044,-0.0069,-0.0089,-0.0063,-0.007,-0.0068,-0.0066,-0.0089,-0.0089,-0.009,-0.0091,-0.0091,-0.0091,0,0.0193,0.0202,0.0209,0.0212,0.0206,0.0212,0.0189,0.018,0.0158,0.0139,0.0117,0.0066,0.0037,0.0015,-0.0013,-0.0017,-0.0038,-0.0062,-0.0074,-0.0057,-0.0084,-0.0085,-0.0086,-0.0087,-0.0088,-0.0089,0,0,0.0231,0.0236,0.0238,0.0252,0.0239,0.0242,0.0243,0.0237,0.0247,0.0203,0.0208,0.0153,0.0125,0.0102,0.006,0.0038,0.0028,-0.0,-0.0003,-0.0008,-0.0022,-0.0025,-0.0027,0.0003,0.0003,0.0003,-0.0046,0,0.0269,0.0304,0.0294,0.0328,0.0345,0.0318,0.0322,0.031,0.0291,0.0283,0.0229,0.0212,0.0158,0.0144,0.0115,0.0051,0.0028,0.0044,-0.0048,-0.0051,-0.0044,-0.0027,0.0002,-0.0038,-0.0047,-0.0047,-0.0048,0,0.0315,0.0331,0.0371,0.0391,0.0396,0.0404,0.0414,0.0416,0.0393,0.0379,0.0353,0.0306,0.0268,0.0215,0.0127,0.014,0.007,0.0015,0.0011,-0.0011,-0.0056,-0.0057,-0.004,-0.014,-0.005,-0.005,-0.005,0,0.036,0.039,0.0425,0.043,0.044,0.0451,0.0455,0.0445,0.0463,0.0444,0.0451,0.0389,0.0364,0.0273,0.0159,0.0142,0.006,0.002,-0.0049,-0.0051,-0.0052,-0.0053,-0.0127,-0.0039,-0.0038,-0.0038,-0.0038,0,0.0409,0.0438,0.0448,0.0465,0.0508,0.0497,0.0541,0.0534,0.0543,0.0574,0.0505,0.0516,0.0377,0.0308,0.0193,0.0079,0.0085,-0.003,-0.0058,-0.003,-0.0029,-0.0138,-0.0204,-0.004,-0.004,-0.0039,-0.0039,0,0.0453,0.0458,0.0501,0.052,0.053,0.056,0.0602,0.0634,0.0631,0.0671,0.0669,0.0617,0.0532,0.0389,0.0245,0.0135,-0.004,-0.003,0.0014,-0.0008,-0.0166,-0.0229,-0.0335,-0.0382,-0.0112,-0.0112,-0.0112,0,0.0479,0.0505,0.0544,0.0572,0.0582,0.0627,0.0659,0.0676,0.0722,0.0738,0.0766,0.0699,0.0674,0.0468,0.0266,0.0075,-0.0041,-0.0037,-0.0064,-0.0158,-0.025,-0.0296,-0.0331,-0.0048,-0.0048,-0.0048,-0.0047,0,0.0529,0.0538,0.057,0.0627,0.0668,0.0726,0.0778,0.0829,0.0853,0.0893,0.0933,0.0915,0.0726,0.0557,0.0293,0.0153,-0.0097,-0.0038,-0.0147,-0.0207,-0.0251,-0.0314,-0.0039,-0.0045,-0.0045,-0.0045,-0.0046,-0.0046,0.0563,0.0593,0.0631,0.0687,0.0739,0.081,0.0867,0.0936,0.1017,0.1081,0.1064,0.107,0.0818,0.0475,0.0274,-0.0069,-0.0094,-0.0177,-0.0246,-0.0286,-0.0324,-0.0038,-0.007,-0.007,-0.0071,-0.0071,-0.0071,0,0.0604,0.0635,0.0689,0.0753,0.0815,0.0836,0.0935,0.1,0.1103,0.1174,0.1219,0.1122,0.0814,0.0482,0.0019,-0.0226,-0.032,-0.0368,-0.0429,-0.0458,-0.0209,-0.0198,-0.0243,-0.0243,-0.0243,-0.0243,-0.0243,-0.0243,0.0626,0.0678,0.07,0.08,0.085,0.0938,0.0996,0.1095,0.1175,0.127,0.1297,0.1302,0.1056,0.0241,-0.0301,-0.0425,-0.0608,-0.0647,-0.075,-0.0583,-0.0571,-0.0559,-0.0563,-0.0684,-0.0685,-0.0949,-0.0952,-0.0954]}],[{"header":{"parameterUnit":"m.s-1","parameterCategory":2,"la1":30.2991,"la2":30.254,"lo1":-89.0895,"lo2":-89.0444,"dy":0.0017,"dx":0.0017,"nx":28,"ny":28,"refTime":"2026-03-04T03:00:00:Z","depth":"2","parameterNumber":2,"parameterNumberName":"U-component_of_CURRENTS"},"data":[0,0,0,0,0,0,0,0,0,0,0,0,0,0,0,0,0,0,0,0,0,0,0,0,0,0,0,0,0,0,0,0,0,0,0,0,0,0,0,0,0,0,0,0,0,0,0,0,0,0,0,0,0,0,0,0,0,0,0.199,0.199,0,0.2002,0.2002,0.2002,0.1996,0.1996,0.1996,0.1995,0.1986,0.1986,0.1986,0,0,0,0,0,0,0,0,0,0,0,0,0,0.1961,0.1961,0.199,0.199,0.199,0.2002,0.2002,0.2002,0.1996,0.1996,0.1995,0.1995,0.1986,0.1986,0.1986,0,0,0,0,0,0,0,0,0,0,0,0,0,0.1972,0.1962,0.199,0.199,0.199,0.2002,0.2002,0.2002,0.1996,0.1996,0.1995,0.1995,0.1987,0.1986,0.1986,0.199,0,0,0.1986,0.1986,0,0,0,0,0,0,0,0,0.1971,0.1973,0.199,0.199,0.199,0.1998,0.1988,0.1997,0.1996,0.1992,0.1995,0.1995,0.199,0.1989,0.199,0.199,0.199,0.1986,0.1986,0.1986,0.1986,0,0,0,0,0,0,0,0.197,0.1972,0.1993,0.199,0.199,0.1989,0.199,0.199,0.199,0.1992,0.1992,0.1996,0.199,0.199,0.199,0.1989,0.1986,0.1986,0.1986,0.1986,0.203,0.2031,0,0,0,0,0,0,0.1973,0.1971,0.1992,0.1993,0.1982,0.199,0.1991,0.1995,0.1991,0.1991,0.1997,0.1996,0.1991,0.199,0.199,0.2023,0.1986,0.1986,0.1986,0.2029,0.203,0.2031,0,0,0,0,0,0,0.1972,0.1974,0.1992,0.1984,0.1986,0.1991,0.1995,0.1995,0.2004,0.1995,0.1994,0.2006,0.199,0.199,0.2002,0.2021,0.1986,0.1985,0.2027,0.2029,0.2031,0.2071,0,0,0,0,0,0,0.1971,0.1974,0.1979,0.1984,0.1987,0.2007,0.1995,0.1996,0.2007,0.2007,0.2002,0.2001,0.199,0.2002,0.2002,0.2021,0.1985,0.2026,0.2028,0.203,0.2068,0.2074,0.2079,0,0,0,0,0,0.197,0.1978,0.198,0.1982,0.1993,0.2008,0.2009,0.201,0.2008,0.2016,0.2016,0.2001,0.2017,0.2003,0.2002,0.2021,0.2024,0.2027,0.203,0.2066,0.2073,0.2079,0,0,0,0,0,0,0.1966,0.1978,0.198,0.1991,0.2003,0.2007,0.2016,0.2018,0.2024,0.2026,0.2014,0.2013,0.2034,0.2024,0.2009,0.2043,0.202,0.2023,0.2048,0.2054,0.206,0.206,0.1985,0,0,0,0,0,0.1969,0.1979,0.199,0.2,0.2008,0.2015,0.2022,0.2025,0.2031,0.2034,0.2032,0.2034,0.2044,0.2046,0.2051,0.2065,0.2065,0.2079,0.2085,0.2089,0.2091,0.2112,0.2119,0.2041,0.2041,0.2041,0,0,0.1969,0.1978,0.1983,0.2001,0.2009,0.2024,0.2018,0.2035,0.2049,0.2032,0.205,0.2055,0.2054,0.2074,0.2082,0.2067,0.2114,0.2093,0.2097,0.2096,0.2115,0.2123,0.2129,0.2043,0.2042,0.2042,0,0,0.1975,0.1986,0.1997,0.2011,0.2032,0.2038,0.2047,0.206,0.2069,0.2087,0.2085,0.2102,0.2107,0.2115,0.2118,0.2158,0.2146,0.2162,0.2185,0.2205,0.2212,0.2217,0.2235,0.2242,0.216,0.216,0.2161,0,0.1975,0.1991,0.2003,0.202,0.2034,0.2047,0.2064,0.2077,0.2093,0.2104,0.2099,0.2128,0.2128,0.2157,0.2172,0.217,0.2178,0.2157,0.2212,0.2217,0.2222,0.2239,0.2246,0.2163,0.2163,0.2162,0.2162,0,0.1989,0.2006,0.2016,0.2041,0.2058,0.2078,0.2099,0.2118,0.2129,0.214,0.2174,0.218,0.2194,0.2204,0.2198,0.2239,0.2232,0.2219,0.2192,0.2232,0.2248,0.2255,0.2166,0.2165,0.2165,0.2164,0,0,0.1975,0.2017,0.202,0.2033,0.2073,0.2083,0.2119,0.2148,0.2169,0.219,0.2218,0.2244,0.2248,0.2253,0.2256,0.2275,0.2321,0.2263,0.2263,0.2277,0.2368,0.2349,0.2354,0.2316,0.2317,0.2318,0.2368,0,0.1981,0.2009,0.2034,0.2062,0.2078,0.2109,0.2137,0.2167,0.2196,0.2227,0.2249,0.2276,0.2267,0.228,0.23,0.2318,0.2338,0.2308,0.2331,0.2331,0.2306,0.2362,0.2175,0.2202,0.2374,0.2375,0.2376,0,0.1982,0.2002,0.2029,0.2069,0.2079,0.2098,0.2145,0.2173,0.2227,0.2254,0.229,0.2306,0.2348,0.233,0.2379,0.2361,0.2369,0.2378,0.238,0.2351,0.2325,0.2189,0.2207,0.2386,0.2385,0.2385,0.2384,0,0.195,0.1994,0.2013,0.2028,0.2077,0.2095,0.2122,0.2176,0.2209,0.2274,0.2305,0.2351,0.238,0.24,0.2425,0.2405,0.2476,0.2447,0.2437,0.2436,0.2275,0.2258,0.2479,0.2479,0.2479,0.2479,0.2479,0,0.1939,0.1953,0.1998,0.2006,0.203,0.2072,0.2106,0.2149,0.2216,0.2253,0.2311,0.2351,0.2399,0.2441,0.2448,0.2474,0.2496,0.2456,0.2453,0.2286,0.227,0.2422,0.2414,0.2481,0.248,0.248,0.2479,0,0.1898,0.1931,0.1951,0.1999,0.2014,0.2027,0.2093,0.2117,0.2193,0.2247,0.2271,0.2367,0.2426,0.2471,0.252,0.2506,0.2529,0.2528,0.2335,0.2309,0.2466,0.2461,0.2519,0.2519,0.2519,0.2519,0.2519,0,0.1879,0.1886,0.1932,0.194,0.196,0.1991,0.2011,0.2094,0.2129,0.2246,0.2266,0.2361,0.2408,0.2494,0.2497,0.2521,0.2548,0.2354,0.2282,0.2482,0.2473,0.2468,0.2462,0.2084,0.208,0.2077,0.2075,0,0.184,0.1858,0.1873,0.1891,0.1908,0.1929,0.1969,0.1998,0.209,0.2146,0.2222,0.2275,0.2372,0.2326,0.2381,0.2363,0.2336,0.2296,0.2553,0.2113,0.2078,0.2068,0.2075,0.2048,0.2051,0.2053,0.2054,0.2055,0.1806,0.1804,0.1822,0.1831,0.1847,0.1851,0.1844,0.1898,0.1943,0.1999,0.2108,0.2122,0.2176,0.2167,0.2117,0.2082,0.2241,0.2129,0.2134,0.2144,0.2095,0.2063,0.2022,0.2024,0.2026,0.2028,0.2029,0,0.1751,0.1754,0.1759,0.1757,0.1738,0.1777,0.1797,0.1775,0.1786,0.1862,0.191,0.1797,0.179,0.1832,0.1747,0.1771,0.1717,0.169,0.1591,0.1621,0.1647,0.1568,0.1357,0.1354,0.1352,0.135,0,0,0.1722,0.17,0.1698,0.1644,0.1642,0.1591,0.1583,0.1572,0.1598,0.1586,0.158,0.1714,0.1791,0.1543,0.1532,0.1421,0.1498,0.1367,0.1916,0.183,0.1852,0.1924,0.1841,0,0,0,0,0]},{"header":{"parameterUnit":"m.s-1","parameterCategory":2,"la1":30.2991,"la2":30.254,"lo1":-89.0895,"lo2":-89.0444,"dy":0.0017,"dx":0.0017,"nx":28,"ny":28,"refTime":"2026-03-04T03:00:00:Z","depth":"2","parameterNumber":3,"parameterNumberName":"V-component_of_CURRENTS"},"data":[0,0,0,0,0,0,0,0,0,0,0,0,0,0,0,0,0,0,0,0,0,0,0,0,0,0,0,0,0,0,0,0,0,0,0,0,0,0,0,0,0,0,0,0,0,0,0,0,0,0,0,0,0,0,0,0,0,0,0.0081,0.008,0,0.003,0.003,0.0029,-0.0005,-0.0006,-0.0006,-0.0006,-0.0071,-0.0072,-0.0074,0,0,0,0,0,0,0,0,0,0,0,0,0,0.0104,0.0104,0.0081,0.008,0.008,0.003,0.003,0.0029,-0.0005,-0.0006,-0.0006,-0.0006,-0.007,-0.0072,-0.0074,0,0,0,0,0,0,0,0,0,0,0,0,0,0.0077,0.0104,0.0081,0.0058,0.0055,0.0031,0.003,0.0029,-0.0005,-0.0006,-0.0006,-0.0006,-0.007,-0.0072,-0.0074,-0.0085,0,0,-0.0082,-0.0083,0,0,0,0,0,0,0,0,0.0078,0.0076,0.0062,0.0059,0.0056,0.002,0.0014,-0.001,-0.0005,0.0016,-0.0006,-0.0006,-0.0041,-0.0046,-0.0056,-0.0089,-0.0091,-0.0082,-0.0084,-0.0085,-0.0085,0,0,0,0,0,0,0,0.008,0.0078,0.006,0.0061,0.0058,0.0035,0.0031,0.0009,-0.0012,0.0014,0.0012,0.0009,-0.0043,-0.0054,-0.0058,-0.0092,-0.0082,-0.0084,-0.0086,-0.0087,-0.0132,-0.0132,0,0,0,0,0,0,0.0092,0.008,0.0061,0.0058,0.0069,0.0035,0.0031,0.0031,-0.0011,-0.0018,0.0009,0.0007,-0.005,-0.0055,-0.0061,-0.0064,-0.0085,-0.0087,-0.0088,-0.0132,-0.0132,-0.0132,0,0,0,0,0,0,0.0093,0.0091,0.0063,0.0068,0.0064,0.0035,0.0035,0.003,0.0021,-0.0015,-0.0022,0.0006,-0.005,-0.0057,-0.0074,-0.0068,-0.0088,-0.009,-0.0133,-0.0132,-0.0132,-0.008,0,0,0,0,0,0,0.0094,0.0091,0.0094,0.007,0.0064,0.0056,0.0035,0.0029,0.0019,0.0017,-0.002,-0.0027,-0.0051,-0.007,-0.0076,-0.0071,-0.0092,-0.0133,-0.0132,-0.0132,-0.0082,-0.0077,-0.0074,0,0,0,0,0,0.0095,0.0103,0.0095,0.0092,0.0069,0.0056,0.0051,0.0029,0.0019,0.0019,-0.0005,-0.0025,-0.0072,-0.0072,-0.0079,-0.0075,-0.0133,-0.0133,-0.0132,-0.0083,-0.0078,-0.0074,0,0,0,0,0,0,0.0113,0.01,0.009,0.0093,0.0079,0.0051,0.0049,0.0034,0.0014,0.0013,-0.0022,-0.003,-0.0043,-0.0066,-0.0065,-0.0087,-0.0106,-0.0107,-0.0066,-0.0062,-0.0058,-0.0044,-0.0094,0,0,0,0,0,0.012,0.0123,0.0104,0.0106,0.0101,0.0076,0.0067,0.0054,0.0034,0.0025,-0.0,-0.0027,-0.0047,-0.0059,-0.0082,-0.0093,-0.0115,-0.0095,-0.0091,-0.0088,-0.0081,-0.0107,-0.0105,-0.013,-0.013,-0.013,0,0,0.0127,0.012,0.0122,0.011,0.0096,0.0098,0.007,0.0064,0.0064,0.0022,0.0013,-0.0014,-0.0047,-0.0059,-0.0067,-0.0077,-0.0093,-0.0087,-0.0084,-0.0079,-0.0107,-0.0104,-0.0102,-0.013,-0.013,-0.013,0,0,0.0149,0.0139,0.015,0.0142,0.013,0.0115,0.0117,0.0094,0.0083,0.007,0.0042,0.0022,-0.0013,-0.0033,-0.0049,-0.0037,-0.0071,-0.0047,-0.0016,-0.0041,-0.0039,-0.0038,-0.0061,-0.0062,-0.0045,-0.0045,-0.0045,0,0.0158,0.0169,0.0151,0.0159,0.0159,0.0128,0.0141,0.0125,0.0099,0.0094,0.0076,0.0029,0.0,-0.0012,-0.001,-0.0028,-0.0048,-0.003,-0.0036,-0.0035,-0.0034,-0.0058,-0.006,-0.0042,-0.0043,-0.0043,-0.0043,0,0.0187,0.0195,0.0202,0.0204,0.0201,0.0206,0.0187,0.0179,0.016,0.0143,0.0124,0.0081,0.0056,0.0041,0.0017,0.0009,-0.0008,-0.0027,-0.0044,-0.0028,-0.0055,-0.0058,-0.0039,-0.004,-0.004,-0.0041,0,0,0.0212,0.0221,0.0224,0.0236,0.0227,0.023,0.0231,0.0224,0.023,0.0193,0.0194,0.015,0.0125,0.0106,0.0072,0.0047,0.0031,0.0016,0.0014,-0.0002,-0.0024,-0.0028,-0.0032,0.0011,0.001,0.001,-0.0044,0,0.024,0.0272,0.0266,0.0295,0.0311,0.0289,0.0293,0.0282,0.0266,0.0257,0.0209,0.0195,0.015,0.014,0.0109,0.0053,0.0026,0.0047,-0.0042,-0.0045,-0.0046,-0.0034,-0.0009,-0.0054,-0.0047,-0.0047,-0.0048,0,0.0274,0.0291,0.0325,0.0346,0.035,0.0359,0.0367,0.0368,0.0346,0.0333,0.0307,0.0269,0.0231,0.0188,0.0102,0.0118,0.0054,0.0005,0.0001,-0.0021,-0.0053,-0.0071,-0.006,-0.0053,-0.0053,-0.0052,-0.0052,0,0.0306,0.0335,0.0366,0.0372,0.0385,0.0394,0.0399,0.039,0.0406,0.0385,0.0391,0.0331,0.0308,0.0222,0.0121,0.0111,0.0024,-0.0006,-0.0071,-0.0073,-0.0078,-0.0079,-0.0069,-0.0069,-0.0068,-0.0068,-0.0068,0,0.0343,0.0368,0.0384,0.04,0.0438,0.0432,0.0469,0.0463,0.0469,0.0496,0.0435,0.0441,0.0315,0.0249,0.0146,0.0037,0.0041,-0.006,-0.0084,-0.0059,-0.0058,-0.0079,-0.0079,-0.007,-0.007,-0.0069,-0.0069,0,0.0376,0.0384,0.0423,0.0445,0.0456,0.0483,0.0523,0.055,0.0547,0.058,0.0578,0.0527,0.0443,0.0314,0.0177,0.0079,-0.0033,-0.0076,-0.0035,-0.0053,-0.0121,-0.0118,-0.0155,-0.0156,-0.0156,-0.0156,-0.0157,0,0.0395,0.0418,0.0459,0.0487,0.0499,0.054,0.057,0.0586,0.0626,0.0637,0.066,0.0593,0.0561,0.0364,0.0182,0.0005,-0.0027,-0.0095,-0.0113,-0.0109,-0.0129,-0.0126,-0.0122,-0.0104,-0.0104,-0.0103,-0.0103,0,0.0432,0.0444,0.0475,0.0533,0.0571,0.0625,0.0674,0.0717,0.0738,0.077,0.0795,0.077,0.0591,0.0423,0.0182,0.0063,-0.0065,-0.0098,-0.0104,-0.0081,-0.0064,-0.0082,-0.008,-0.0102,-0.0102,-0.0102,-0.0103,-0.0103,0.0457,0.0486,0.0525,0.0581,0.0631,0.0696,0.0746,0.0805,0.0872,0.0917,0.0895,0.0864,0.0671,0.0374,0.0166,-0.0055,-0.0051,-0.0134,-0.0133,-0.0133,-0.0112,-0.0096,-0.0137,-0.0138,-0.0138,-0.0138,-0.0138,0,0.0487,0.0518,0.0571,0.0634,0.0693,0.0717,0.0805,0.0856,0.0937,0.0981,0.1004,0.0827,0.0644,0.0418,0.0095,-0.0098,-0.0113,-0.0159,-0.0138,-0.0137,-0.0136,-0.0115,-0.0142,-0.0143,-0.0143,-0.0144,0,0,0.0501,0.0551,0.0575,0.0668,0.0719,0.0799,0.0851,0.0927,0.0981,0.1023,0.1014,0.0987,0.0715,0.0481,0.0222,0.0036,-0.0007,0.0002,0.0028,0.0086,0.0089,-0.0097,-0.0061,0,0,0,0,0]}],[{"header":{"parameterUnit":"m.s-1","parameterCategory":2,"la1":30.2991,"la2":30.254,"lo1":-89.0895,"lo2":-89.0444,"dy":0.0017,"dx":0.0017,"nx":28,"ny":28,"refTime":"2026-03-04T03:00:00:Z","depth":"4","parameterNumber":2,"parameterNumberName":"U-component_of_CURRENTS"},"data":[0,0,0,0,0,0,0,0,0,0,0,0,0,0,0,0,0,0,0,0,0,0,0,0,0,0,0,0,0,0,0,0,0,0,0,0,0,0,0,0,0,0,0,0,0,0,0,0,0,0,0,0,0,0,0,0,0,0,0.1327,0.1328,0,0.1377,0.1377,0.1378,0.1419,0.1419,0.142,0.1421,0.1479,0.148,0.1481,0,0,0,0,0,0,0,0,0,0,0,0,0,0.126,0.1261,0.1327,0.1328,0.1329,0.1377,0.1377,0.1378,0.1419,0.142,0.142,0.1421,0.1478,0.148,0.1481,0,0,0,0,0,0,0,0,0,0,0,0,0,0.1296,0.1261,0.1327,0.1356,0.1359,0.1377,0.1377,0.1378,0.1419,0.142,0.142,0.1421,0.1478,0.148,0.1481,0.1474,0,0,0.1486,0.1487,0,0,0,0,0,0,0,0,0.1294,0.1298,0.1351,0.1354,0.1358,0.1394,0.1375,0.1411,0.1418,0.1395,0.1421,0.1422,0.1451,0.1455,0.1461,0.1477,0.1479,0.1486,0.1487,0.1488,0.1488,0,0,0,0,0,0,0,0.1291,0.1296,0.1346,0.1352,0.1356,0.1364,0.137,0.1382,0.1417,0.1397,0.14,0.1408,0.1453,0.1459,0.1462,0.148,0.1486,0.1487,0.1488,0.1489,0.1577,0.1579,0,0,0,0,0,0,0.1288,0.1294,0.1344,0.1347,0.1329,0.1364,0.1371,0.138,0.1417,0.1423,0.1407,0.1409,0.1456,0.1461,0.1465,0.1535,0.1488,0.1489,0.149,0.1576,0.1578,0.1579,0,0,0,0,0,0,0.1286,0.1292,0.1342,0.1323,0.133,0.1365,0.1375,0.1381,0.1416,0.1424,0.1431,0.1439,0.1457,0.1462,0.1504,0.1535,0.149,0.1491,0.1574,0.1576,0.1578,0.1627,0,0,0,0,0,0,0.1284,0.1291,0.1309,0.1322,0.1331,0.1371,0.1374,0.1381,0.1418,0.1422,0.1454,0.1458,0.1458,0.1502,0.1505,0.1536,0.1492,0.1572,0.1575,0.1578,0.1624,0.1631,0.1637,0,0,0,0,0,0.1281,0.1297,0.131,0.1317,0.1351,0.1372,0.1378,0.1403,0.1419,0.1438,0.1463,0.1459,0.1521,0.1504,0.1508,0.154,0.1571,0.1574,0.1577,0.1621,0.1629,0.1636,0,0,0,0,0,0,0.1278,0.1303,0.1317,0.1342,0.1365,0.138,0.1404,0.1419,0.1454,0.1468,0.1475,0.1482,0.153,0.1528,0.1509,0.1574,0.1546,0.155,0.1578,0.1586,0.1592,0.1593,0.1494,0,0,0,0,0,0.1285,0.1308,0.1329,0.1353,0.1367,0.1391,0.1409,0.1427,0.1452,0.147,0.1492,0.1517,0.1541,0.1559,0.1577,0.1611,0.1609,0.1635,0.1641,0.1647,0.1651,0.1677,0.1686,0.159,0.159,0.1589,0,0,0.129,0.1309,0.1323,0.1355,0.1377,0.14,0.1405,0.1441,0.1469,0.147,0.1524,0.1542,0.1555,0.1596,0.1617,0.1602,0.1675,0.1651,0.1655,0.1657,0.1681,0.1691,0.1699,0.1592,0.1591,0.1591,0,0,0.1301,0.1331,0.1351,0.1374,0.1413,0.1427,0.1444,0.1476,0.1505,0.1549,0.1561,0.16,0.1635,0.1652,0.1663,0.1715,0.1708,0.1726,0.1761,0.1786,0.1794,0.1801,0.1813,0.182,0.1729,0.1729,0.1729,0,0.1309,0.1337,0.1361,0.1386,0.1411,0.1442,0.1469,0.1497,0.1543,0.1569,0.1576,0.1645,0.1659,0.1706,0.1729,0.1731,0.1739,0.1729,0.1794,0.1801,0.1807,0.1817,0.1825,0.1732,0.1732,0.1731,0.1731,0,0.1327,0.1361,0.1377,0.142,0.1448,0.148,0.1517,0.1558,0.1595,0.162,0.1686,0.1709,0.1748,0.1763,0.1764,0.1821,0.1811,0.1799,0.1772,0.182,0.1828,0.1835,0.1736,0.1735,0.1734,0.1733,0,0,0.131,0.1377,0.1386,0.1414,0.1473,0.1493,0.155,0.1601,0.1642,0.1693,0.1745,0.1795,0.1815,0.1829,0.1841,0.1868,0.1921,0.1859,0.1859,0.1866,0.1976,0.1857,0.1854,0.1924,0.1926,0.1927,0.1963,0,0.132,0.1368,0.1403,0.1457,0.1485,0.1537,0.1583,0.1637,0.1686,0.1743,0.1785,0.1838,0.1837,0.1868,0.1896,0.1918,0.1943,0.1912,0.1932,0.1932,0.1818,0.1859,0.1932,0.1968,0.197,0.1971,0.1972,0,0.1319,0.1356,0.1409,0.148,0.1499,0.1539,0.1621,0.1667,0.1748,0.179,0.1849,0.1881,0.1943,0.193,0.1991,0.1974,0.1983,0.1991,0.1992,0.1869,0.1827,0.1911,0.1984,0.1983,0.1982,0.1982,0.1981,0,0.1282,0.1356,0.1401,0.1427,0.1511,0.1554,0.1604,0.1685,0.1734,0.1826,0.1869,0.1937,0.1982,0.201,0.2036,0.2023,0.2088,0.2065,0.1965,0.1957,0.203,0.2022,0.2104,0.2104,0.2104,0.2104,0.2103,0,0.1264,0.1303,0.1393,0.1417,0.1478,0.1543,0.1614,0.1675,0.1765,0.1814,0.1892,0.1933,0.2008,0.205,0.2058,0.2031,0.2106,0.1976,0.196,0.205,0.2044,0.2035,0.2027,0.2105,0.2105,0.2104,0.2104,0,0.1213,0.1274,0.133,0.1428,0.1463,0.1507,0.1616,0.1657,0.1754,0.1821,0.1856,0.1954,0.2,0.2053,0.2101,0.2046,0.2042,0.2014,0.2113,0.2102,0.1887,0.1881,0.1895,0.1891,0.1888,0.1885,0.1883,0,0.1188,0.1214,0.1325,0.1361,0.1411,0.1488,0.1535,0.1643,0.1684,0.1811,0.1829,0.192,0.1967,0.1936,0.2004,0.2008,0.1987,0.1968,0.1918,0.1883,0.1867,0.1866,0.1864,0.1878,0.1877,0.1876,0.1875,0,0.114,0.1194,0.1241,0.1313,0.1372,0.1425,0.1502,0.1521,0.1632,0.1735,0.1754,0.1776,0.1824,0.1853,0.1876,0.1876,0.1969,0.1934,0.194,0.1893,0.1862,0.1849,0.1852,0.1864,0.1866,0.1867,0.1867,0,0.1108,0.1128,0.1197,0.125,0.1318,0.1339,0.1389,0.1429,0.1481,0.1613,0.1615,0.1706,0.1799,0.1786,0.1807,0.18,0.1768,0.1702,0.172,0.1733,0.1664,0.1601,0.1512,0,0,0,0,0,0.1066,0.1079,0.1125,0.1173,0.1234,0.1272,0.1355,0.1404,0.1507,0.1477,0.154,0.1573,0.1595,0.1649,0.1609,0.1747,0.1785,0.1694,0.1721,0.1802,0.1815,0.1749,0,0,0,0,0,0,0.1036,0.1079,0.1095,0.1095,0.1111,0.1161,0.1207,0.1278,0.1267,0.1377,0.1398,0.148,0.1531,0.16,0.1579,0.1596,0.1581,0.1759,0.1755,0.1794,0.1806,0.1816,0.1754,0,0,0,0,0]},{"header":{"parameterUnit":"m.s-1","parameterCategory":2,"la1":30.2991,"la2":30.254,"lo1":-89.0895,"lo2":-89.0444,"dy":0.0017,"dx":0.0017,"nx":28,"ny":28,"refTime":"2026-03-04T03:00:00:Z","depth":"4","parameterNumber":3,"parameterNumberName":"V-component_of_CURRENTS"},"data":[0,0,0,0,0,0,0,0,0,0,0,0,0,0,0,0,0,0,0,0,0,0,0,0,0,0,0,0,0,0,0,0,0,0,0,0,0,0,0,0,0,0,0,0,0,0,0,0,0,0,0,0,0,0,0,0,0,0,0.0098,0.0097,0,0.0063,0.0062,0.0062,0.0034,0.0034,0.0034,0.0034,-0.0017,-0.0018,-0.002,0,0,0,0,0,0,0,0,0,0,0,0,0,0.011,0.0111,0.0098,0.0097,0.0097,0.0063,0.0062,0.0062,0.0034,0.0034,0.0034,0.0034,-0.0017,-0.0018,-0.002,0,0,0,0,0,0,0,0,0,0,0,0,0,0.0092,0.0111,0.0098,0.008,0.0078,0.0063,0.0062,0.0062,0.0034,0.0034,0.0034,0.0034,-0.0016,-0.0018,-0.002,-0.0026,0,0,-0.0025,-0.0026,0,0,0,0,0,0,0,0,0.0093,0.0092,0.0083,0.0081,0.0079,0.0054,0.0048,0.0032,0.0035,0.005,0.0034,0.0034,0.0006,0.0002,-0.0005,-0.0028,-0.003,-0.0026,-0.0027,-0.0027,-0.0028,0,0,0,0,0,0,0,0.0095,0.0093,0.0083,0.0083,0.008,0.0064,0.0061,0.0045,0.0029,0.0049,0.0047,0.0045,0.0004,-0.0003,-0.0007,-0.0031,-0.0026,-0.0027,-0.0028,-0.0029,-0.0056,-0.0056,0,0,0,0,0,0,0.0103,0.0094,0.0084,0.0082,0.0087,0.0064,0.0061,0.0061,0.0029,0.0024,0.0045,0.0044,-0.0,-0.0004,-0.0008,-0.0009,-0.0027,-0.0029,-0.003,-0.0056,-0.0056,-0.0056,0,0,0,0,0,0,0.0104,0.0103,0.0085,0.0088,0.0085,0.0064,0.0065,0.0061,0.0055,0.0027,0.0021,0.0043,-0.0,-0.0006,-0.0017,-0.0011,-0.003,-0.0032,-0.0057,-0.0056,-0.0056,-0.0015,0,0,0,0,0,0,0.0104,0.0103,0.0106,0.0089,0.0085,0.0082,0.0065,0.006,0.0054,0.0052,0.0024,0.0019,-0.0001,-0.0014,-0.0018,-0.0014,-0.0033,-0.0057,-0.0057,-0.0056,-0.0017,-0.0013,-0.001,0,0,0,0,0,0.0105,0.0112,0.0107,0.0105,0.009,0.0082,0.0079,0.0062,0.0055,0.0055,0.0038,0.0019,-0.0013,-0.0015,-0.0021,-0.0017,-0.0058,-0.0057,-0.0056,-0.0018,-0.0014,-0.001,0,0,0,0,0,0,0.0118,0.011,0.0103,0.0107,0.0098,0.0078,0.0078,0.0067,0.0053,0.0052,0.0024,0.0018,0.001,-0.0007,-0.0009,-0.0022,-0.0038,-0.0039,-0.0008,-0.0004,-0.0,0.0006,-0.0034,0,0,0,0,0,0.0124,0.0128,0.0115,0.0118,0.0116,0.0098,0.0093,0.0083,0.0069,0.0062,0.0043,0.0023,0.0009,-0.0,-0.0016,-0.0023,-0.0044,-0.0024,-0.0021,-0.0018,-0.0016,-0.0043,-0.0042,-0.0053,-0.0053,-0.0053,0,0,0.013,0.0126,0.0128,0.0122,0.0113,0.0115,0.0094,0.0091,0.0091,0.0059,0.0054,0.0035,0.001,0.0003,-0.0002,-0.0011,-0.0025,-0.0017,-0.0014,-0.0014,-0.0042,-0.0041,-0.004,-0.0052,-0.0053,-0.0053,0,0,0.0145,0.0141,0.015,0.0146,0.0139,0.0129,0.0131,0.0116,0.0107,0.0101,0.0079,0.0065,0.0041,0.0025,0.0013,0.0026,-0.0005,0.0021,0.0041,0.0016,0.0017,0.0017,-0.0004,-0.0006,0.0022,0.0022,0.0022,0,0.0152,0.0162,0.0151,0.0158,0.0159,0.0139,0.0149,0.0139,0.0121,0.0117,0.0105,0.0072,0.0051,0.004,0.0044,0.0033,0.0015,0.0029,0.002,0.002,0.002,-0.0002,-0.0005,0.0024,0.0024,0.0023,0.0023,0,0.0172,0.0181,0.0187,0.0191,0.019,0.0196,0.0183,0.018,0.0168,0.0155,0.0142,0.0111,0.0092,0.0083,0.0067,0.0056,0.0043,0.0029,0.0011,0.0023,-0.0001,-0.0004,0.0027,0.0026,0.0026,0.0025,0,0,0.0186,0.0199,0.0201,0.0212,0.0209,0.0213,0.0215,0.0212,0.0216,0.0191,0.0189,0.016,0.0141,0.0127,0.0102,0.0079,0.0061,0.0056,0.0054,0.0036,0.0006,0.0004,-0.0,0.0044,0.0043,0.0043,-0.0007,0,0.0205,0.023,0.023,0.0254,0.0266,0.0255,0.0259,0.0253,0.0243,0.0236,0.02,0.019,0.0159,0.0152,0.0123,0.0079,0.0052,0.0076,-0.0005,-0.0007,-0.001,-0.0004,0.0042,-0.001,-0.0011,-0.0012,-0.0012,0,0.0225,0.024,0.0268,0.0289,0.0293,0.0303,0.0311,0.0314,0.0298,0.0289,0.0269,0.0241,0.0208,0.0178,0.0103,0.0119,0.0067,0.0027,0.0024,0.0005,-0.0016,-0.0028,-0.0019,-0.0018,-0.0018,-0.0017,-0.0017,0,0.0242,0.0269,0.0294,0.0301,0.0317,0.0327,0.0335,0.033,0.0343,0.0326,0.0331,0.028,0.0262,0.019,0.011,0.0105,0.0023,0.0005,-0.0048,-0.0049,-0.0051,-0.0051,-0.0053,-0.0053,-0.0053,-0.0053,-0.0053,0,0.0262,0.0284,0.0306,0.0319,0.0352,0.0353,0.0384,0.0382,0.0388,0.0407,0.0363,0.0361,0.0264,0.0207,0.0124,0.0032,0.0032,-0.0044,-0.0062,-0.0031,-0.0029,-0.0053,-0.0052,-0.0055,-0.0055,-0.0054,-0.0054,0,0.0276,0.029,0.0323,0.0349,0.0363,0.0385,0.0426,0.0446,0.0447,0.047,0.0469,0.0424,0.0349,0.0248,0.0132,0.0059,-0.0034,-0.0069,-0.0021,-0.0037,-0.0095,-0.0091,-0.0134,-0.0135,-0.0135,-0.0135,-0.0136,0,0.0285,0.0304,0.0348,0.0373,0.0389,0.0427,0.0454,0.0472,0.0501,0.0508,0.0521,0.0464,0.0417,0.026,0.0144,-0.0013,-0.004,-0.0093,-0.0104,-0.0089,-0.0103,-0.0099,-0.0095,-0.0136,-0.0136,-0.0136,-0.0137,0,0.03,0.0317,0.0344,0.0398,0.0435,0.0481,0.0524,0.055,0.057,0.0577,0.0566,0.0484,0.0399,0.0268,0.0148,0.0032,-0.006,-0.0098,-0.0098,-0.0109,-0.0092,-0.0105,-0.0101,-0.0138,-0.0138,-0.0138,-0.0138,0,0.0311,0.0332,0.037,0.0417,0.0468,0.0516,0.0539,0.0571,0.0598,0.0607,0.0602,0.0507,0.0456,0.0292,0.0181,0.0069,0.0031,-0.0017,-0.0022,-0.0022,0.0021,0.0059,0.0046,0,0,0,0,0,0.0318,0.0341,0.0386,0.0436,0.0489,0.0521,0.0577,0.0597,0.0621,0.062,0.0614,0.0535,0.0375,0.031,0.0197,0.0157,0.0001,0.0018,-0.0059,-0.0146,-0.0144,-0.0114,0,0,0,0,0,0,0.032,0.036,0.0381,0.0444,0.0482,0.0542,0.0577,0.0597,0.06,0.0608,0.0532,0.0497,0.0347,0.0441,0.0192,0.0159,0.0091,-0.0052,-0.0055,-0.0147,-0.0146,-0.0144,-0.0112,0,0,0,0,0]}]]